• en Suisse
  • Liste des pays
  • À 7 jours
  • Température de l'eau
  • Carte satellitaire
  • Carte météo
  • Widgets météo
  • user-avatar
    Se connecter

    Météo par heure à Vatican

    Ce jour, 20 Octobre, Samedi

    Heure Température Précipitation Vent Pression Humidité
    00:00 +20°C° 0 mm 2 m/s 762 mmHg 74%
    01:00 +20°C° 0 mm 3 m/s 762 mmHg 73%
    02:00 +20°C° 0 mm 2 m/s 762 mmHg 71%
    03:00 +20°C° 0 mm 2 m/s 762 mmHg 70%
    04:00 +20°C° 0 mm 2 m/s 762 mmHg 68%
    05:00 +20°C° 0 mm 2 m/s 762 mmHg 67%
    06:00 +20°C° 0 mm 2 m/s 763 mmHg 67%
    07:00 +20°C° 0 mm 1 m/s 763 mmHg 66%
    08:00 +22°C° 0 mm 1 m/s 763 mmHg 61%
    09:00 +24°C° 0 mm 1 m/s 763 mmHg 57%
    10:00 +26°C° 0 mm 1 m/s 763 mmHg 53%
    11:00 +26°C° 0 mm 1 m/s 763 mmHg 51%
    12:00 +27°C° 0 mm 1 m/s 764 mmHg 49%
    13:00 +27°C° 0 mm 2 m/s 764 mmHg 47%
    14:00 +27°C° 0 mm 2 m/s 763 mmHg 49%
    15:00 +27°C° 0 mm 2 m/s 763 mmHg 51%
    16:00 +26°C° 0 mm 3 m/s 763 mmHg 53%
    17:00 +25°C° 0 mm 3 m/s 763 mmHg 58%
    18:00 +24°C° 0 mm 2 m/s 763 mmHg 62%
    19:00 +23°C° 0 mm 2 m/s 763 mmHg 67%
    20:00 +23°C° 0 mm 2 m/s 763 mmHg 67%
    21:00 +21°C° 0 mm 2 m/s 763 mmHg 68%
    22:00 +21°C° 0 mm 2 m/s 764 mmHg 68%
    23:00 +21°C° 0 mm 2 m/s 763 mmHg 69%

    Demain, 21 Octobre, Dimanche

    Heure Température Précipitation Vent Pression Humidité
    00:00 +20°C° 0 mm 2 m/s 763 mmHg 70%
    01:00 +21°C° 0 mm 1 m/s 763 mmHg 71%
    02:00 +21°C° 0 mm 1 m/s 763 mmHg 70%
    03:00 +21°C° 0 mm 1 m/s 762 mmHg 70%
    04:00 +20°C° 0 mm 1 m/s 762 mmHg 70%
    05:00 +20°C° 0 mm 1 m/s 762 mmHg 70%
    06:00 +19°C° 0 mm 2 m/s 762 mmHg 70%
    07:00 +19°C° 0 mm 2 m/s 762 mmHg 70%
    08:00 +21°C° 0 mm 2 m/s 762 mmHg 66%
    09:00 +23°C° 0 mm 2 m/s 762 mmHg 62%
    10:00 +25°C° 0 mm 2 m/s 761 mmHg 58%
    11:00 +25°C° 0 mm 2 m/s 761 mmHg 57%
    12:00 +25°C° 0 mm 2 m/s 761 mmHg 55%
    13:00 +26°C° 0 mm 2 m/s 760 mmHg 54%
    14:00 +25°C° 0.2 mm 2 m/s 760 mmHg 57%
    15:00 +25°C° 0.2 mm 3 m/s 760 mmHg 60%
    16:00 +24°C° 0.2 mm 3 m/s 759 mmHg 62%
    17:00 +22°C° 0.2 mm 3 m/s 759 mmHg 66%
    18:00 +21°C° 0.2 mm 2 m/s 759 mmHg 69%
    19:00 +20°C° 0.2 mm 2 m/s 759 mmHg 72%
    20:00 +19°C° 0.3 mm 2 m/s 760 mmHg 72%
    21:00 +19°C° 0.3 mm 3 m/s 760 mmHg 72%
    22:00 +19°C° 0.3 mm 3 m/s 760 mmHg 72%
    23:00 +18°C° 0.4 mm 4 m/s 760 mmHg 73%

    Après-demain, 22 Octobre, Lundi

    Heure Température Précipitation Vent Pression Humidité
    00:00 +18°C° 0.4 mm 4 m/s 760 mmHg 74%
    01:00 +16°C° 0.4 mm 5 m/s 760 mmHg 75%
    02:00 +16°C° 0.3 mm 5 m/s 759 mmHg 75%
    03:00 +15°C° 0.3 mm 5 m/s 759 mmHg 75%
    04:00 +15°C° 0.3 mm 5 m/s 759 mmHg 74%
    05:00 +14°C° 0.2 mm 5 m/s 759 mmHg 73%
    06:00 +14°C° 0.2 mm 5 m/s 759 mmHg 72%
    07:00 +14°C° 0.2 mm 5 m/s 759 mmHg 71%
    08:00 +15°C° 0.3 mm 5 m/s 759 mmHg 66%
    09:00 +16°C° 0.3 mm 5 m/s 759 mmHg 60%
    10:00 +17°C° 0.3 mm 5 m/s 759 mmHg 54%
    11:00 +17°C° 0.3 mm 5 m/s 759 mmHg 51%
    12:00 +19°C° 0.3 mm 4 m/s 759 mmHg 48%
    13:00 +19°C° 0.3 mm 4 m/s 758 mmHg 44%
    14:00 +19°C° 0 mm 4 m/s 758 mmHg 44%
    15:00 +19°C° 0 mm 4 m/s 758 mmHg 44%
    16:00 +19°C° 0 mm 4 m/s 758 mmHg 43%
    17:00 +19°C° 0 mm 5 m/s 758 mmHg 46%
    18:00 +17°C° 0 mm 6 m/s 758 mmHg 48%
    19:00 +16°C° 0 mm 7 m/s 759 mmHg 51%
    20:00 +16°C° 0 mm 7 m/s 759 mmHg 54%
    21:00 +15°C° 0 mm 7 m/s 759 mmHg 58%
    22:00 +14°C° 0 mm 7 m/s 759 mmHg 62%
    23:00 +14°C° 0 mm 7 m/s 759 mmHg 63%

    23 Octobre, Mardi

    Heure Température Précipitation Vent Pression Humidité
    00:00 +14°C° 0 mm 7 m/s 759 mmHg 65%
    01:00 +14°C° 0 mm 7 m/s 759 mmHg 66%
    02:00 +14°C° 0 mm 7 m/s 759 mmHg 67%
    03:00 +14°C° 0 mm 7 m/s 759 mmHg 68%
    04:00 +13°C° 0 mm 8 m/s 759 mmHg 68%
    05:00 +13°C° 0 mm 8 m/s 759 mmHg 68%
    06:00 +15°C° 0 mm 8 m/s 759 mmHg 68%
    07:00 +15°C° 0 mm 7 m/s 760 mmHg 68%
    08:00 +16°C° 0 mm 8 m/s 760 mmHg 61%
    09:00 +18°C° 0 mm 8 m/s 760 mmHg 54%
    10:00 +21°C° 0 mm 8 m/s 760 mmHg 47%
    11:00 +22°C° 0 mm 7 m/s 760 mmHg 44%
    12:00 +22°C° 0 mm 7 m/s 760 mmHg 42%
    13:00 +23°C° 0 mm 6 m/s 760 mmHg 39%
    14:00 +23°C° 0 mm 6 m/s 760 mmHg 40%
    15:00 +23°C° 0 mm 6 m/s 759 mmHg 42%
    16:00 +22°C° 0 mm 6 m/s 759 mmHg 43%
    17:00 +21°C° 0 mm 6 m/s 760 mmHg 47%
    18:00 +20°C° 0 mm 6 m/s 760 mmHg 50%
    19:00 +17°C° 0 mm 6 m/s 760 mmHg 53%
    20:00 +17°C° 0 mm 6 m/s 760 mmHg 55%
    21:00 +16°C° 0 mm 6 m/s 761 mmHg 56%
    22:00 +15°C° 0 mm 5 m/s 761 mmHg 58%
    23:00 +15°C° 0 mm 5 m/s 761 mmHg 58%

    24 Octobre, Mercredi

    Heure Température Précipitation Vent Pression Humidité
    00:00 +14°C° 0 mm 5 m/s 761 mmHg 58%
    01:00 +14°C° 0 mm 5 m/s 760 mmHg 58%
    02:00 +14°C° 0 mm 5 m/s 760 mmHg 58%
    03:00 +13°C° 0 mm 5 m/s 760 mmHg 58%
    04:00 +13°C° 0 mm 5 m/s 760 mmHg 58%
    05:00 +13°C° 0 mm 5 m/s 760 mmHg 56%
    06:00 +13°C° 0 mm 5 m/s 760 mmHg 55%
    07:00 +13°C° 0 mm 5 m/s 760 mmHg 54%
    08:00 +15°C° 0 mm 4 m/s 760 mmHg 47%
    09:00 +18°C° 0 mm 4 m/s 760 mmHg 41%
    10:00 +20°C° 0 mm 4 m/s 760 mmHg 34%
    11:00 +21°C° 0 mm 4 m/s 760 mmHg 33%
    12:00 +23°C° 0 mm 4 m/s 759 mmHg 32%
    13:00 +25°C° 0 mm 5 m/s 759 mmHg 30%
    14:00 +25°C° 0 mm 5 m/s 759 mmHg 33%
    15:00 +24°C° 0 mm 6 m/s 759 mmHg 36%
    16:00 +24°C° 0 mm 6 m/s 759 mmHg 38%
    17:00 +22°C° 0 mm 6 m/s 759 mmHg 43%
    18:00 +21°C° 0 mm 6 m/s 759 mmHg 47%
    19:00 +20°C° 0 mm 6 m/s 760 mmHg 52%
    20:00 +19°C° 0 mm 6 m/s 760 mmHg 51%
    21:00 +19°C° 0 mm 5 m/s 760 mmHg 51%
    22:00 +19°C° 0 mm 5 m/s 760 mmHg 50%
    23:00 +17°C° 0 mm 5 m/s 761 mmHg 49%

    25 Octobre, Jeudi

    Heure Température Précipitation Vent Pression Humidité
    00:00 +17°C° 0 mm 5 m/s 761 mmHg 49%
    01:00 +18°C° 0 mm 4 m/s 761 mmHg 49%
    02:00 +17°C° 0 mm 4 m/s 761 mmHg 48%
    03:00 +17°C° 0 mm 4 m/s 761 mmHg 48%
    04:00 +17°C° 0 mm 4 m/s 761 mmHg 48%
    05:00 +17°C° 0 mm 3 m/s 761 mmHg 48%
    06:00 +17°C° 0 mm 3 m/s 761 mmHg 48%
    07:00 +17°C° 0 mm 3 m/s 762 mmHg 48%
    08:00 +18°C° 0 mm 2 m/s 762 mmHg 43%
    09:00 +20°C° 0 mm 2 m/s 762 mmHg 39%
    10:00 +23°C° 0 mm 1 m/s 762 mmHg 34%
    11:00 +24°C° 0 mm 2 m/s 762 mmHg 34%
    12:00 +25°C° 0 mm 2 m/s 762 mmHg 35%
    13:00 +25°C° 0 mm 2 m/s 762 mmHg 35%
    14:00 +25°C° 0 mm 2 m/s 762 mmHg 39%
    15:00 +24°C° 0 mm 2 m/s 762 mmHg 43%
    16:00 +24°C° 0 mm 2 m/s 762 mmHg 47%
    17:00 +23°C° 0 mm 2 m/s 762 mmHg 54%
    18:00 +20°C° 0 mm 2 m/s 762 mmHg 60%
    19:00 +19°C° 0 mm 2 m/s 762 mmHg 67%
    20:00 +19°C° 0 mm 2 m/s 762 mmHg 69%
    21:00 +19°C° 0 mm 2 m/s 763 mmHg 71%
    22:00 +18°C° 0 mm 2 m/s 763 mmHg 72%
    23:00 +18°C° 0 mm 2 m/s 763 mmHg 72%
    Voir plus